"lat","lon","time"
40.704593,-73.99486,2015-09-27 14:32:40
40.703792,-73.995956,2015-09-27 14:33:44
40.703101,-73.997035,2015-09-27 14:34:46
40.702422,-73.998018,2015-09-27 14:35:48
40.701708,-73.998787,2015-09-27 14:36:49
40.700898,-73.999562,2015-09-27 14:37:58
40.700103,-74.000165,2015-09-27 14:39:02
40.699297,-74.000787,2015-09-27 14:40:07
40.698519,-74.001362,2015-09-27 14:41:13
40.697688,-74.001971,2015-09-27 14:42:27
40.697009,-74.002479,2015-09-27 14:43:29
40.696307,-74.003077,2015-09-27 14:44:39
40.695612,-74.003562,2015-09-27 14:45:43
40.695017,-74.004018,2015-09-27 14:46:46
40.694423,-74.004502,2015-09-27 14:47:46
40.693716,-74.005072,2015-09-27 14:48:56
40.693051,-74.005589,2015-09-27 14:50:04
40.692435,-74.006113,2015-09-27 14:51:09
40.69181,-74.006641,2015-09-27 14:52:10
40.691214,-74.007163,2015-09-27 14:53:10
40.690545,-74.007812,2015-09-27 14:54:17
40.689926,-74.008404,2015-09-27 14:55:18
40.689262,-74.00905,2015-09-27 14:56:24
40.688585,-74.009652,2015-09-27 14:57:24
40.687802,-74.01031,2015-09-27 14:58:30
40.687038,-74.01106,2015-09-27 14:59:34
40.686349,-74.011858,2015-09-27 15:00:35
40.685659,-74.012773,2015-09-27 15:01:39
40.684906,-74.013839,2015-09-27 15:02:51
40.684195,-74.014942,2015-09-27 15:04:01
40.683515,-74.016038,2015-09-27 15:05:08
40.68288,-74.017094,2015-09-27 15:06:11
40.6822,-74.01807,2015-09-27 15:07:15
40.681544,-74.019124,2015-09-27 15:08:21
40.680868,-74.020136,2015-09-27 15:09:28
40.680249,-74.021025,2015-09-27 15:10:30
40.67956,-74.021911,2015-09-27 15:11:34
40.678893,-74.02273,2015-09-27 15:12:36
40.678271,-74.023424,2015-09-27 15:13:35
40.677581,-74.024195,2015-09-27 15:14:42
40.676939,-74.024932,2015-09-27 15:15:47
40.676326,-74.02562,2015-09-27 15:16:49
40.675855,-74.026108,2015-09-27 15:17:59
40.675289,-74.026626,2015-09-27 15:19:09
40.674611,-74.027391,2015-09-27 15:20:16
40.674013,-74.028081,2015-09-27 15:21:20
40.673434,-74.028769,2015-09-27 15:22:21
40.672705,-74.029503,2015-09-27 15:23:33
40.671978,-74.030091,2015-09-27 15:24:39
40.67128,-74.030691,2015-09-27 15:25:46
40.67053,-74.031101,2015-09-27 15:26:49
40.669718,-74.03155,2015-09-27 15:27:56
40.668946,-74.031966,2015-09-27 15:29:00
40.668084,-74.032417,2015-09-27 15:30:09
40.667247,-74.032831,2015-09-27 15:31:16
40.666472,-74.033228,2015-09-27 15:32:16
40.665698,-74.033601,2015-09-27 15:33:15
40.664855,-74.034049,2015-09-27 15:34:20
40.664031,-74.034477,2015-09-27 15:35:21
40.663193,-74.034915,2015-09-27 15:36:24
40.66237,-74.035333,2015-09-27 15:37:26
40.661515,-74.035794,2015-09-27 15:38:33
40.6607,-74.036286,2015-09-27 15:39:35
40.659822,-74.036782,2015-09-27 15:40:41
40.658961,-74.037303,2015-09-27 15:41:47
40.657994,-74.037768,2015-09-27 15:43:00
40.65713,-74.038146,2015-09-27 15:44:04
40.656343,-74.03856,2015-09-27 15:45:04
40.655517,-74.038975,2015-09-27 15:46:06
40.654676,-74.039367,2015-09-27 15:47:09
40.653864,-74.03977,2015-09-27 15:48:11
40.653055,-74.040093,2015-09-27 15:49:13
40.652178,-74.040438,2015-09-27 15:50:20
40.651341,-74.040781,2015-09-27 15:51:25
40.650554,-74.041022,2015-09-27 15:52:24
40.649683,-74.041374,2015-09-27 15:53:30
40.648905,-74.041751,2015-09-27 15:54:30
40.648095,-74.042136,2015-09-27 15:55:34
40.647275,-74.042538,2015-09-27 15:56:40
40.646473,-74.042927,2015-09-27 15:57:43
40.645558,-74.043352,2015-09-27 15:58:55
40.644731,-74.043804,2015-09-27 16:00:02
40.643979,-74.044246,2015-09-27 16:01:06
40.643406,-74.044662,2015-09-27 16:02:10
40.643,-74.045124,2015-09-27 16:03:12
40.642421,-74.045466,2015-09-27 16:04:15
40.64162,-74.045893,2015-09-27 16:05:21
40.640815,-74.046296,2015-09-27 16:06:28
40.640017,-74.046685,2015-09-27 16:07:33
40.639199,-74.047059,2015-09-27 16:08:37
40.638449,-74.047453,2015-09-27 16:09:36
40.637598,-74.047889,2015-09-27 16:10:41
40.636712,-74.048299,2015-09-27 16:11:47
40.635905,-74.048715,2015-09-27 16:12:47
40.634927,-74.049137,2015-09-27 16:13:59
40.634113,-74.049455,2015-09-27 16:14:58
40.633278,-74.049734,2015-09-27 16:15:57
40.632314,-74.05003,2015-09-27 16:17:06
40.631457,-74.05025,2015-09-27 16:18:06
40.630556,-74.050467,2015-09-27 16:19:10
40.629592,-74.050715,2015-09-27 16:20:15
40.628635,-74.050911,2015-09-27 16:21:19
40.627627,-74.051039,2015-09-27 16:22:27
40.626669,-74.051131,2015-09-27 16:23:30
40.625712,-74.051232,2015-09-27 16:24:34
40.624787,-74.05128,2015-09-27 16:25:34
40.623852,-74.051271,2015-09-27 16:26:37
40.622929,-74.051104,2015-09-27 16:27:41
40.622035,-74.050857,2015-09-27 16:28:46
40.621186,-74.050652,2015-09-27 16:29:45
40.62032,-74.050349,2015-09-27 16:30:49
40.61945,-74.050051,2015-09-27 16:31:49
40.618456,-74.049817,2015-09-27 16:32:54
40.617374,-74.049596,2015-09-27 16:34:00
40.616357,-74.049365,2015-09-27 16:35:02
40.615385,-74.049082,2015-09-27 16:36:03
40.614306,-74.048676,2015-09-27 16:37:12
40.613353,-74.04821,2015-09-27 16:38:15
40.612279,-74.047708,2015-09-27 16:39:23
40.611291,-74.047229,2015-09-27 16:40:26
40.610241,-74.046669,2015-09-27 16:41:34
40.609242,-74.046134,2015-09-27 16:42:38
40.608181,-74.045519,2015-09-27 16:43:46
40.607184,-74.044967,2015-09-27 16:44:51
40.60619,-74.044414,2015-09-27 16:45:54
40.60557,-74.044224,2015-09-27 16:46:56
40.604809,-74.043878,2015-09-27 16:47:56
40.60376,-74.043259,2015-09-27 16:49:03
40.602808,-74.042665,2015-09-27 16:50:06
40.601772,-74.041926,2015-09-27 16:51:16
40.600772,-74.041227,2015-09-27 16:52:25
40.599874,-74.040685,2015-09-27 16:53:25
40.598852,-74.039985,2015-09-27 16:54:34
40.59795,-74.039201,2015-09-27 16:55:41
40.597089,-74.038278,2015-09-27 16:56:52
40.596371,-74.0374,2015-09-27 16:57:56
40.595585,-74.036447,2015-09-27 16:59:05
40.594896,-74.035568,2015-09-27 17:00:07
40.594211,-74.034642,2015-09-27 17:01:11
40.593481,-74.033776,2015-09-27 17:02:13
40.592732,-74.032942,2015-09-27 17:03:13
40.591934,-74.032108,2015-09-27 17:04:15
40.591101,-74.031165,2015-09-27 17:05:23
40.59037,-74.030332,2015-09-27 17:06:23
40.589434,-74.029419,2015-09-27 17:07:32
40.588504,-74.028563,2015-09-27 17:08:40
40.587679,-74.027753,2015-09-27 17:09:42
40.586839,-74.026985,2015-09-27 17:10:43
40.585879,-74.026074,2015-09-27 17:11:53
40.584971,-74.025279,2015-09-27 17:12:57
40.584146,-74.024435,2015-09-27 17:14:00
40.583286,-74.023601,2015-09-27 17:15:05
40.582491,-74.02289,2015-09-27 17:16:04
40.58165,-74.022161,2015-09-27 17:17:06
40.580824,-74.021463,2015-09-27 17:18:09
40.579927,-74.020765,2015-09-27 17:19:15
40.579122,-74.020164,2015-09-27 17:20:14
40.578217,-74.019292,2015-09-27 17:21:24
40.577424,-74.018511,2015-09-27 17:22:23
40.576473,-74.017601,2015-09-27 17:23:32
40.575534,-74.01671,2015-09-27 17:24:41
40.574638,-74.015867,2015-09-27 17:25:50
40.573933,-74.015118,2015-09-27 17:26:50
40.573256,-74.014292,2015-09-27 17:27:51
40.572617,-74.013495,2015-09-27 17:28:50
40.571922,-74.012811,2015-09-27 17:30:01
40.571373,-74.012344,2015-09-27 17:31:15
40.570888,-74.011556,2015-09-27 17:32:20
40.570501,-74.010479,2015-09-27 17:33:34
40.570251,-74.009497,2015-09-27 17:34:37
40.570147,-74.008446,2015-09-27 17:35:50
40.570123,-74.007638,2015-09-27 17:36:50
40.570026,-74.006882,2015-09-27 17:37:50
40.569916,-74.006079,2015-09-27 17:38:56
40.569697,-74.005179,2015-09-27 17:40:12
40.569533,-74.004463,2015-09-27 17:41:12
40.569407,-74.003699,2015-09-27 17:42:17
40.569246,-74.002887,2015-09-27 17:43:26
40.569224,-74.002124,2015-09-27 17:44:33
40.569224,-74.001328,2015-09-27 17:45:38
40.569208,-74.000255,2015-09-27 17:47:09
40.569266,-73.999461,2015-09-27 17:48:15
40.569253,-73.998525,2015-09-27 17:49:46
40.569282,-73.997823,2015-09-27 17:50:59
40.569344,-73.996844,2015-09-27 17:52:39
40.569393,-73.996141,2015-09-27 17:53:58
40.569453,-73.995407,2015-09-27 17:55:27
40.569473,-73.994846,2015-09-27 17:56:29
40.569372,-73.994157,2015-09-27 17:57:44
40.569297,-73.993246,2015-09-27 17:59:17
40.56932,-73.992388,2015-09-27 18:00:42
40.569369,-73.991668,2015-09-27 18:01:48
40.569365,-73.990901,2015-09-27 18:02:57
40.569374,-73.990034,2015-09-27 18:04:18
40.56943,-73.989385,2015-09-27 18:05:17
40.569325,-73.988557,2015-09-27 18:06:33
40.569303,-73.987744,2015-09-27 18:07:43
40.569337,-73.986953,2015-09-27 18:08:52
40.569354,-73.986223,2015-09-27 18:09:56
40.569371,-73.985482,2015-09-27 18:11:03
40.569393,-73.984768,2015-09-27 18:12:05
40.569411,-73.983824,2015-09-27 18:13:27
40.569441,-73.983089,2015-09-27 18:14:31
40.569497,-73.982671,2015-09-27 18:16:57
40.569541,-73.982271,2015-09-27 18:19:14
40.569541,-73.982271,2015-09-27 18:21:34
40.569352,-73.982431,2015-09-27 18:23:35
40.569301,-73.982838,2015-09-27 18:25:02
40.569286,-73.983178,2015-09-27 18:26:11
40.569361,-73.983571,2015-09-27 18:27:33
40.56945,-73.98391,2015-09-27 18:28:44
40.56967,-73.984517,2015-09-27 18:30:43
40.569706,-73.984895,2015-09-27 18:32:00
40.569715,-73.985267,2015-09-27 18:33:13
40.569683,-73.985636,2015-09-27 18:34:20
40.56967,-73.98601,2015-09-27 18:35:33
40.569604,-73.986382,2015-09-27 18:36:40
40.569562,-73.986729,2015-09-27 18:37:44
40.56956,-73.987107,2015-09-27 18:38:48
40.569527,-73.987828,2015-09-27 18:40:43
40.569523,-73.988329,2015-09-27 18:41:59
40.569519,-73.988699,2015-09-27 18:42:58
40.569422,-73.989388,2015-09-27 18:44:44
40.569314,-73.990065,2015-09-27 18:46:23
40.569283,-73.990762,2015-09-27 18:47:57
40.569268,-73.991503,2015-09-27 18:49:30
40.569288,-73.992237,2015-09-27 18:51:00
40.569286,-73.992966,2015-09-27 18:52:34
40.569284,-73.993697,2015-09-27 18:54:02
40.569286,-73.994436,2015-09-27 18:55:30
40.569277,-73.99517,2015-09-27 18:56:52
40.569267,-73.995911,2015-09-27 18:58:15
40.569279,-73.996601,2015-09-27 18:59:34
40.569294,-73.997331,2015-09-27 19:00:59
40.5695,-73.998085,2015-09-27 19:03:23
40.569508,-73.998477,2015-09-27 19:04:31
40.569456,-73.999322,2015-09-27 19:06:00
40.569418,-73.999894,2015-09-27 19:06:59
40.569384,-74.000595,2015-09-27 19:08:02
40.569295,-74.001297,2015-09-27 19:09:14
40.569201,-74.001915,2015-09-27 19:10:13
40.569177,-74.002712,2015-09-27 19:11:23
40.569331,-74.003654,2015-09-27 19:12:38
40.569409,-74.004312,2015-09-27 19:13:39
40.569672,-74.005279,2015-09-27 19:15:08
40.57008,-74.006325,2015-09-27 19:16:41
40.570303,-74.006944,2015-09-27 19:17:44
40.570482,-74.007625,2015-09-27 19:18:44
40.570634,-74.008354,2015-09-27 19:19:44
40.570773,-74.009237,2015-09-27 19:20:48
40.571001,-74.010275,2015-09-27 19:21:58
40.571203,-74.011227,2015-09-27 19:23:04
40.57139,-74.012123,2015-09-27 19:24:12
40.571572,-74.013008,2015-09-27 19:25:18
40.571748,-74.01383,2015-09-27 19:26:21
40.571924,-74.014572,2015-09-27 19:27:24
40.572231,-74.015496,2015-09-27 19:28:59
40.57253,-74.016118,2015-09-27 19:30:41
40.572766,-74.016498,2015-09-27 19:31:51
40.573195,-74.016946,2015-09-27 19:33:39
40.573636,-74.017419,2015-09-27 19:35:26
40.573875,-74.017674,2015-09-27 19:36:25
40.574365,-74.017968,2015-09-27 19:38:07
40.574931,-74.018205,2015-09-27 19:39:54
40.575195,-74.018393,2015-09-27 19:40:56
40.575445,-74.018565,2015-09-27 19:41:56
40.575679,-74.018778,2015-09-27 19:43:04
40.575942,-74.018956,2015-09-27 19:44:08
40.575942,-74.018956,2015-09-27 19:47:13
40.576353,-74.0193,2015-09-27 19:49:03
40.576889,-74.019524,2015-09-27 19:51:11
40.577169,-74.019648,2015-09-27 19:52:22
40.577669,-74.019874,2015-09-27 19:54:12
40.578182,-74.019971,2015-09-27 19:56:07
40.578768,-74.020089,2015-09-27 19:58:21
40.579287,-74.020191,2015-09-27 20:00:15
40.579539,-74.020232,2015-09-27 20:01:17
40.579793,-74.020286,2015-09-27 20:02:19
40.580341,-74.020472,2015-09-27 20:04:21
40.58062,-74.020597,2015-09-27 20:05:48
40.580863,-74.0207,2015-09-27 20:06:47
40.581117,-74.02082,2015-09-27 20:07:57
40.581424,-74.020961,2015-09-27 20:09:24
40.581697,-74.021073,2015-09-27 20:10:33
40.58196,-74.021188,2015-09-27 20:11:51
40.582261,-74.021409,2015-09-27 20:13:20
40.582532,-74.021471,2015-09-27 20:14:19
40.582801,-74.021594,2015-09-27 20:15:30
40.583043,-74.021747,2015-09-27 20:16:29
40.58331,-74.021844,2015-09-27 20:17:33
40.583587,-74.021974,2015-09-27 20:18:39
40.583824,-74.022182,2015-09-27 20:19:46
40.584376,-74.022358,2015-09-27 20:21:45
40.584923,-74.022534,2015-09-27 20:23:47
40.585194,-74.022664,2015-09-27 20:24:51
40.585722,-74.022895,2015-09-27 20:26:57
40.586216,-74.023233,2015-09-27 20:29:01
40.586457,-74.023396,2015-09-27 20:30:03
40.586457,-74.023396,2015-09-27 20:32:04
40.586939,-74.023582,2015-09-27 20:33:47
40.587182,-74.023785,2015-09-27 20:34:52
40.587424,-74.023958,2015-09-27 20:35:56
40.587669,-74.024148,2015-09-27 20:36:56
40.588195,-74.024411,2015-09-27 20:38:41
40.588436,-74.024605,2015-09-27 20:39:41
40.588887,-74.024997,2015-09-27 20:41:28
40.589319,-74.025337,2015-09-27 20:43:11
40.589811,-74.025729,2015-09-27 20:44:58
40.590273,-74.026078,2015-09-27 20:46:39
40.590717,-74.026517,2015-09-27 20:48:26
40.591178,-74.02697,2015-09-27 20:50:19
40.591675,-74.027308,2015-09-27 20:52:03
40.592169,-74.027628,2015-09-27 20:53:37
40.59249,-74.027811,2015-09-27 20:54:36
40.592837,-74.028039,2015-09-27 20:55:40
40.593317,-74.02838,2015-09-27 20:57:07
40.593793,-74.028758,2015-09-27 20:58:30
40.594262,-74.029153,2015-09-27 20:59:52
40.594628,-74.029439,2015-09-27 21:00:51
40.595105,-74.029827,2015-09-27 21:02:09
40.595524,-74.0302,2015-09-27 21:03:20
40.596077,-74.030695,2015-09-27 21:04:50
40.596617,-74.03118,2015-09-27 21:06:16
40.597109,-74.031598,2015-09-27 21:07:32
40.59757,-74.031974,2015-09-27 21:08:41
40.598028,-74.032267,2015-09-27 21:09:43
40.59849,-74.032575,2015-09-27 21:10:48
40.598986,-74.032962,2015-09-27 21:11:57
40.599532,-74.033287,2015-09-27 21:13:10
40.600032,-74.033598,2015-09-27 21:14:15
40.600533,-74.033956,2015-09-27 21:15:18
40.601016,-74.034247,2015-09-27 21:16:57
40.601504,-74.034544,2015-09-27 21:18:22
40.602036,-74.034883,2015-09-27 21:19:21
40.602553,-74.035266,2015-09-27 21:20:21
40.603123,-74.035713,2015-09-27 21:21:27
40.603718,-74.036138,2015-09-27 21:22:34
40.604244,-74.036528,2015-09-27 21:23:35
40.604864,-74.037044,2015-09-27 21:24:46
40.605445,-74.037505,2015-09-27 21:25:52
40.606077,-74.037973,2015-09-27 21:27:07
40.60663,-74.038382,2015-09-27 21:28:12
40.607289,-74.038818,2015-09-27 21:29:25
40.608011,-74.039409,2015-09-27 21:30:36
40.608602,-74.03971,2015-09-27 21:31:39
40.609245,-74.03996,2015-09-27 21:32:46
40.609885,-74.040195,2015-09-27 21:33:49
40.610574,-74.040412,2015-09-27 21:34:53
40.611272,-74.040615,2015-09-27 21:35:55
40.611951,-74.040831,2015-09-27 21:36:55
40.61273,-74.041105,2015-09-27 21:38:02
40.613567,-74.041389,2015-09-27 21:39:13
40.614411,-74.041667,2015-09-27 21:40:21
40.615282,-74.041946,2015-09-27 21:41:26
40.616128,-74.042184,2015-09-27 21:42:29
40.617083,-74.04242,2015-09-27 21:43:42
40.617953,-74.042699,2015-09-27 21:44:52
40.618827,-74.04296,2015-09-27 21:46:00
40.619551,-74.043163,2015-09-27 21:46:59
40.620425,-74.043339,2015-09-27 21:48:09
40.621299,-74.043525,2015-09-27 21:49:21
40.622054,-74.043643,2015-09-27 21:50:26
40.62273,-74.043776,2015-09-27 21:51:29
40.623374,-74.043922,2015-09-27 21:52:28
40.624088,-74.044085,2015-09-27 21:53:33
40.624788,-74.044239,2015-09-27 21:54:40
40.625413,-74.044309,2015-09-27 21:55:39
40.626186,-74.044471,2015-09-27 21:56:52
40.62691,-74.044635,2015-09-27 21:57:57
40.627631,-74.044728,2015-09-27 21:59:03
40.62831,-74.04487,2015-09-27 22:00:07
40.628798,-74.044938,2015-09-27 22:01:18
40.629367,-74.044934,2015-09-27 22:02:33
40.629904,-74.044968,2015-09-27 22:04:01
40.630452,-74.044932,2015-09-27 22:05:09
40.631031,-74.044815,2015-09-27 22:06:13
40.631828,-74.044641,2015-09-27 22:07:23
40.632641,-74.044607,2015-09-27 22:08:35
40.633371,-74.044547,2015-09-27 22:09:42
40.634032,-74.044533,2015-09-27 22:10:45
40.63474,-74.044515,2015-09-27 22:11:51
40.635367,-74.044458,2015-09-27 22:12:53
40.635971,-74.044361,2015-09-27 22:13:52
40.636681,-74.044241,2015-09-27 22:15:02
40.637305,-74.044119,2015-09-27 22:16:04
40.637962,-74.043986,2015-09-27 22:17:09
40.638693,-74.043845,2015-09-27 22:18:25
40.639311,-74.043669,2015-09-27 22:19:29
40.639973,-74.04346,2015-09-27 22:20:39
40.640574,-74.043191,2015-09-27 22:21:45
40.641096,-74.042885,2015-09-27 22:22:48
40.641627,-74.042633,2015-09-27 22:23:48
40.642136,-74.042424,2015-09-27 22:24:50
40.642693,-74.04217,2015-09-27 22:25:56
40.643261,-74.041914,2015-09-27 22:27:02
40.643869,-74.041635,2015-09-27 22:28:12
40.644423,-74.041378,2015-09-27 22:29:14
40.644953,-74.041137,2015-09-27 22:30:15
40.645592,-74.040863,2015-09-27 22:31:26
40.646107,-74.040619,2015-09-27 22:32:27
40.646704,-74.040339,2015-09-27 22:33:36
40.647386,-74.04002,2015-09-27 22:34:58
40.647909,-74.039769,2015-09-27 22:36:00
40.648398,-74.039574,2015-09-27 22:37:02
40.648991,-74.039354,2015-09-27 22:38:17
40.649658,-74.038849,2015-09-27 22:39:43
40.650188,-74.038454,2015-09-27 22:40:50
40.650629,-74.03803,2015-09-27 22:41:51
40.651201,-74.037512,2015-09-27 22:43:03
40.651668,-74.037022,2015-09-27 22:44:07
40.652108,-74.036554,2015-09-27 22:45:07
40.652624,-74.03604,2015-09-27 22:46:18
40.653095,-74.035542,2015-09-27 22:47:24
40.6535,-74.035147,2015-09-27 22:48:43
40.653742,-74.034931,2015-09-27 22:49:47
40.654193,-74.034635,2015-09-27 22:51:01
40.654747,-74.034158,2015-09-27 22:52:09
40.655233,-74.033772,2015-09-27 22:53:10
40.655707,-74.033405,2015-09-27 22:54:09
40.656201,-74.033021,2015-09-27 22:55:10
40.656716,-74.032606,2015-09-27 22:56:14
40.657305,-74.032137,2015-09-27 22:57:26
40.657846,-74.031692,2015-09-27 22:58:34
40.658325,-74.031305,2015-09-27 22:59:36
40.658959,-74.030919,2015-09-27 23:00:52
40.659653,-74.030553,2015-09-27 23:02:14
40.660179,-74.03033,2015-09-27 23:03:17
40.660735,-74.030081,2015-09-27 23:04:22
40.661263,-74.029816,2015-09-27 23:05:25
40.661788,-74.029585,2015-09-27 23:06:27
40.662313,-74.029368,2015-09-27 23:07:29
40.662798,-74.029188,2015-09-27 23:08:30
40.663371,-74.028983,2015-09-27 23:09:37
40.663875,-74.028788,2015-09-27 23:10:37
40.66449,-74.028447,2015-09-27 23:11:51
40.6651,-74.028043,2015-09-27 23:13:06
40.665655,-74.027659,2015-09-27 23:14:15
40.666132,-74.027317,2015-09-27 23:15:17
40.666753,-74.02694,2015-09-27 23:16:32
40.667238,-74.026641,2015-09-27 23:17:31
40.66783,-74.026299,2015-09-27 23:18:42
40.668429,-74.026007,2015-09-27 23:19:54
40.668974,-74.025771,2015-09-27 23:20:57
40.66948,-74.025537,2015-09-27 23:21:58
40.670046,-74.025285,2015-09-27 23:23:06
40.670564,-74.025072,2015-09-27 23:24:09
40.671205,-74.024772,2015-09-27 23:25:25
40.671898,-74.024542,2015-09-27 23:26:47
40.672455,-74.024228,2015-09-27 23:27:57
40.673111,-74.024003,2015-09-27 23:29:50
40.673586,-74.023762,2015-09-27 23:30:51
40.67407,-74.023447,2015-09-27 23:31:54
40.674632,-74.023134,2015-09-27 23:33:04
40.675187,-74.022913,2015-09-27 23:34:10
40.675754,-74.022699,2015-09-27 23:35:17
40.676402,-74.022526,2015-09-27 23:36:27
40.67705,-74.022384,2015-09-27 23:37:32
40.677706,-74.022236,2015-09-27 23:38:36
40.678459,-74.021996,2015-09-27 23:39:47
40.679102,-74.02166,2015-09-27 23:40:52
40.679662,-74.021226,2015-09-27 23:41:53
40.680369,-74.020679,2015-09-27 23:43:03
40.681072,-74.019978,2015-09-27 23:44:13
40.681623,-74.019297,2015-09-27 23:45:13
40.682187,-74.018553,2015-09-27 23:46:15
40.682739,-74.017754,2015-09-27 23:47:19
40.683317,-74.016881,2015-09-27 23:48:28
40.683926,-74.015952,2015-09-27 23:49:40
40.684446,-74.015123,2015-09-27 23:50:40
40.684963,-74.014345,2015-09-27 23:51:39
40.685584,-74.013434,2015-09-27 23:52:46
40.686271,-74.012527,2015-09-27 23:53:55
40.686914,-74.011717,2015-09-27 23:54:56
40.687556,-74.010981,2015-09-27 23:55:56
40.688289,-74.010148,2015-09-27 23:57:01
40.688963,-74.009397,2015-09-27 23:58:01
40.689651,-74.008609,2015-09-27 23:59:02
40.690408,-74.007731,2015-09-28 00:00:09
40.691156,-74.006875,2015-09-28 00:01:17
40.691919,-74.006125,2015-09-28 00:02:21
40.692653,-74.005437,2015-09-28 00:03:21
40.693505,-74.004755,2015-09-28 00:04:39
40.694076,-74.004355,2015-09-28 00:05:41
40.694748,-74.003864,2015-09-28 00:06:52
40.69538,-74.003419,2015-09-28 00:07:59
40.695976,-74.002994,2015-09-28 00:08:58
40.696633,-74.002546,2015-09-28 00:10:05
40.697298,-74.002062,2015-09-28 00:11:09
40.698077,-74.001546,2015-09-28 00:12:20
40.698826,-74.001046,2015-09-28 00:13:31
40.699487,-74.00054,2015-09-28 00:14:31
40.700334,-73.999915,2015-09-28 00:15:39
40.701089,-73.99929,2015-09-28 00:16:41
40.701815,-73.998619,2015-09-28 00:17:41
40.702457,-73.997873,2015-09-28 00:18:46
40.70314,-73.997087,2015-09-28 00:19:55
40.703822,-73.996298,2015-09-28 00:20:54
40.704461,-73.995324,2015-09-28 00:21:53
40.704704,-73.994821,2015-09-28 00:22:18
